sat.trackr.live / text

‹ back to catalog

STARLINK-31499

NORAD 59217 · 2024-046S

PAYLOAD ACTIVE UNKNOWN

§ Identity

Operator
Country
US
Launch date
2024-03-11
Launch site
AFWTR
Launch vehicle
Mass (kg)
RCS (m²)

Purposes: comms

External: N2YO · Heavens-Above · Gunter

§ Orbital elements

Epoch: 2026-09-20T10:52:08.235840Z

Period
93.85 min
Inclination
53.1624°
Eccentricity
0.0001175
Mean motion
15.34386350 rev/d
Perigee alt
461.9 km
Apogee alt
463.5 km
Semi-major
6,840.9 km
B*
7.2882e-5
RAAN
326.0741°
Arg perigee
69.7487°
Mean anomaly
290.3642°
Rev number
14,292

§ Raw data

STARLINK-314991 59217U 24046S   26263.45287310  .00002086  00000+0  72882-4 0  99952 59217  53.1624 326.0741 0001175  69.7487 290.3642 15.34386350142927

JSON: /api/v1/satellites/59217 · /tle

For live sub-satellite position, see the globe view (requires WebGL).

§ Visibility from observer

Set your observer location to see the next 7 days of passes ≥ 10°. The values pass through the URL so the page stays shareable.

No JS? Fill the form by hand. The geolocation button needs JavaScript.